| time (UTC) | temp F | wind direction | speed knots | gust knots | rain 1hr in | rain 24hr in | rain mn in | humidity % | barometer mb |
| 20260510060048 | 52 | 172 | 0.0 | 0.0 | 0.00 | 0.00 | 0.00 | 78 | 1010.5 |
| 20260510054547 | 53 | 172 | 0.0 | 0.0 | 0.00 | 0.00 | 0.00 | 77 | 1010.5 |
| 20260510053047 | 53 | 172 | 0.0 | 0.0 | 0.00 | 0.00 | 0.00 | 75 | 1010.5 |
| 20260510051550 | 54 | 172 | 0.0 | 0.0 | 0.00 | 0.00 | 0.00 | 75 | 1010.6 |
| 20260510050040 | 54 | 172 | 0.0 | 0.0 | 0.00 | 0.00 | 0.00 | 74 | 1010.6 |
| 20260510044538 | 54 | 172 | 0.0 | 0.0 | 0.00 | 0.00 | 0.00 | 72 | 1010.6 |
| 20260510043036 | 54 | 172 | 0.0 | 0.0 | 0.00 | 0.00 | 0.00 | 72 | 1010.5 |
| 20260510041534 | 55 | 172 | 0.0 | 0.0 | 0.00 | 0.00 | 0.00 | 71 | 1010.3 |
| 20260510040043 | 55 | 172 | 0.0 | 0.0 | 0.00 | 0.00 | 0.00 | 70 | 1010.3 |
| 20260510034532 | 56 | 172 | 0.0 | 0.0 | 0.00 | 0.00 | 0.00 | 70 | 1010.3 |
| 20260510033030 | 56 | 172 | 0.0 | 0.0 | 0.00 | 0.00 | 0.00 | 69 | 1010.2 |
| 20260510031532 | 57 | 172 | 0.0 | 0.0 | 0.00 | 0.00 | 0.00 | 68 | 1010.2 |
| 20260510030030 | 58 | 172 | 0.0 | 0.0 | 0.00 | 0.00 | 0.00 | 68 | 1010.2 |
| 20260510024531 | 58 | 172 | 0.0 | 0.0 | 0.00 | 0.00 | 0.00 | 67 | 1010.1 |
| 20260510023028 | 59 | 172 | 0.0 | 0.0 | 0.00 | 0.00 | 0.00 | 66 | 1010.0 |
| 20260510021531 | 60 | 172 | 0.0 | 0.0 | 0.00 | 0.00 | 0.00 | 66 | 1010.0 |
| 20260510020031 | 60 | 172 | 0.0 | 0.0 | 0.00 | 0.00 | 0.00 | 67 | 1009.7 |
| 20260510014528 | 60 | 172 | 0.0 | 0.0 | 0.00 | 0.00 | 0.00 | 66 | 1009.6 |
| 20260510013027 | 60 | 172 | 0.0 | 0.0 | 0.00 | 0.00 | 0.00 | 66 | 1009.3 |
| 20260510011526 | 60 | 172 | 0.0 | 0.0 | 0.00 | 0.00 | 0.00 | 65 | 1009.0 |
| 20260510010025 | 61 | 172 | 0.0 | 0.0 | 0.00 | 0.00 | 0.00 | 63 | 1008.9 |
| 20260510004524 | 63 | 172 | 0.0 | 0.0 | 0.00 | 0.00 | 0.00 | 60 | 1008.8 |
| 20260510003023 | 64 | 172 | 0.0 | 0.0 | 0.00 | 0.00 | 0.00 | 59 | 1008.6 |
| 20260510001521 | 66 | 172 | 0.0 | 0.0 | 0.00 | 0.00 | 0.00 | 57 | 1008.5 |
| 20260510000021 | 68 | 172 | 0.0 | 0.0 | 0.00 | 0.00 | 0.00 | 51 | 1008.5 |
| 20260509234520 | 69 | 172 | 0.0 | 0.0 | 0.00 | 0.00 | 0.00 | 49 | 1008.4 |
| 20260509233021 | 71 | 172 | 0.0 | 0.0 | 0.00 | 0.00 | 0.00 | 45 | 1008.2 |
| 20260509231518 | 72 | 172 | 0.0 | 0.0 | 0.00 | 0.00 | 0.00 | 44 | 1008.2 |
| 20260509230018 | 72 | 170 | 0.0 | 0.0 | 0.00 | 0.00 | 0.00 | 42 | 1008.2 |
| 20260509224516 | 73 | 173 | 0.0 | 1.7 | 0.00 | 0.00 | 0.00 | 40 | 1008.1 |
| 20260509223015 | 75 | 197 | 0.0 | 2.6 | 0.00 | 0.00 | 0.00 | 36 | 1008.3 |
| 20260509221516 | 75 | 167 | 0.0 | 3.5 | 0.00 | 0.00 | 0.00 | 34 | 1008.2 |
| 20260509220014 | 75 | 187 | 0.0 | 2.6 | 0.00 | 0.00 | 0.00 | 33 | 1008.3 |
| 20260509214513 | 77 | 162 | 1.7 | 2.6 | 0.00 | 0.00 | 0.00 | 30 | 1008.2 |
| 20260509213013 | 76 | 135 | 0.9 | 2.6 | 0.00 | 0.00 | 0.00 | 34 | 1008.1 |
| 20260509211509 | 77 | 181 | 0.0 | 2.6 | 0.00 | 0.00 | 0.00 | 33 | 1008.0 |
| 20260509210008 | 76 | 194 | 0.0 | 3.5 | 0.00 | 0.00 | 0.00 | 34 | 1008.0 |
| 20260509204511 | 76 | 251 | 0.0 | 2.6 | 0.00 | 0.00 | 0.00 | 35 | 1008.1 |
| 20260509203002 | 75 | 181 | 0.9 | 3.5 | 0.00 | 0.00 | 0.00 | 39 | 1008.0 |
| 20260509201501 | 74 | 136 | 1.7 | 4.3 | 0.00 | 0.00 | 0.00 | 39 | 1008.0 |
| 20260509200111 | 75 | 160 | 0.9 | 2.6 | 0.00 | 0.00 | 0.00 | 39 | 1008.3 |
| 20260509194557 | 74 | 184 | 1.7 | 6.1 | 0.00 | 0.00 | 0.00 | 38 | 1008.6 |
| 20260509193052 | 72 | 134 | 0.0 | 4.3 | 0.00 | 0.00 | 0.00 | 42 | 1008.8 |
| 20260509191549 | 71 | 166 | 0.0 | 3.5 | 0.00 | 0.00 | 0.00 | 43 | 1009.2 |
| 20260509190049 | 71 | 305 | 0.9 | 4.3 | 0.00 | 0.00 | 0.00 | 42 | 1009.4 |
| 20260509184548 | 70 | 153 | 0.0 | 7.8 | 0.00 | 0.00 | 0.00 | 43 | 1009.2 |
| 20260509183100 | 70 | 160 | 0.9 | 4.3 | 0.00 | 0.00 | 0.00 | 43 | 1009.3 |
| 20260509181542 | 69 | 147 | 0.0 | 4.3 | 0.00 | 0.00 | 0.00 | 43 | 1009.7 |
| 20260509180039 | 69 | 307 | 0.0 | 2.6 | 0.00 | 0.00 | 0.00 | 43 | 1010.1 |
| 20260509174547 | 69 | 102 | 0.0 | 3.5 | 0.00 | 0.00 | 0.00 | 43 | 1010.4 |
| 20260509173042 | 70 | 150 | 0.0 | 0.9 | 0.00 | 0.00 | 0.00 | 44 | 1010.4 |
| 20260509171542 | 71 | 174 | 0.9 | 3.5 | 0.00 | 0.00 | 0.00 | 42 | 1010.3 |
| 20260509170035 | 71 | 144 | 0.0 | 2.6 | 0.00 | 0.00 | 0.00 | 42 | 1010.4 |
| 20260509164534 | 70 | 178 | 0.9 | 3.5 | 0.00 | 0.00 | 0.00 | 42 | 1010.6 |
| 20260509163043 | 69 | 164 | 0.0 | 5.2 | 0.00 | 0.00 | 0.00 | 44 | 1010.7 |
| 20260509161541 | 69 | 158 | 0.0 | 2.6 | 0.00 | 0.00 | 0.00 | 45 | 1010.6 |
| 20260509160032 | 70 | 184 | 1.7 | 3.5 | 0.00 | 0.00 | 0.00 | 42 | 1010.7 |
| 20260509154526 | 68 | 153 | 0.9 | 4.3 | 0.00 | 0.00 | 0.00 | 44 | 1010.8 |
| 20260509153041 | 68 | 155 | 0.9 | 5.2 | 0.00 | 0.00 | 0.00 | 44 | 1011.0 |
| 20260509151523 | 68 | 310 | 0.0 | 3.5 | 0.00 | 0.00 | 0.00 | 44 | 1011.0 |
| 20260509150032 | 67 | 121 | 0.9 | 4.3 | 0.00 | 0.00 | 0.00 | 44 | 1011.1 |
| 20260509144520 | 66 | 172 | 0.9 | 3.5 | 0.00 | 0.00 | 0.00 | 45 | 1011.3 |
| 20260509143015 | 64 | 176 | 0.9 | 6.1 | 0.00 | 0.00 | 0.00 | 45 | 1011.5 |
| 20260509141513 | 63 | 193 | 0.0 | 4.3 | 0.00 | 0.00 | 0.00 | 48 | 1011.7 |
| 20260509140008 | 61 | 127 | 0.9 | 4.3 | 0.00 | 0.00 | 0.00 | 50 | 1011.8 |
| 20260509134506 | 61 | 149 | 0.0 | 1.7 | 0.00 | 0.00 | 0.00 | 50 | 1011.7 |
| 20260509133005 | 60 | 165 | 0.0 | 0.9 | 0.00 | 0.00 | 0.00 | 51 | 1011.9 |
| 20260509131502 | 60 | 166 | 0.0 | 2.6 | 0.00 | 0.00 | 0.00 | 50 | 1011.9 |
| 20260509130100 | 58 | 148 | 0.0 | 1.7 | 0.00 | 0.00 | 0.00 | 51 | 1011.8 |
| 20260509124559 | 58 | 193 | 0.0 | 2.6 | 0.00 | 0.00 | 0.00 | 51 | 1011.8 |
| 20260509123119 | 58 | 135 | 0.9 | 4.3 | 0.00 | 0.00 | 0.00 | 50 | 1011.8 |
| 20260509121600 | 58 | 194 | 0.9 | 2.6 | 0.00 | 0.00 | 0.00 | 49 | 1011.8 |
| 20260509120056 | 58 | 158 | 0.0 | 2.6 | 0.00 | 0.00 | 0.00 | 48 | 1011.9 |
| 20260509114554 | 58 | 171 | 0.0 | 2.6 | 0.00 | 0.00 | 0.00 | 47 | 1011.7 |
| 20260509113054 | 58 | 178 | 0.0 | 2.6 | 0.00 | 0.00 | 0.00 | 46 | 1011.8 |
| 20260509111552 | 58 | 169 | 0.0 | 2.6 | 0.00 | 0.00 | 0.00 | 45 | 1011.4 |
| 20260509110051 | 59 | 213 | 0.0 | 0.0 | 0.00 | 0.00 | 0.00 | 44 | 1011.5 |
| 20260509104550 | 0 | 0.0 | 0.0 | 0.00 | 0.00 | 0.00 | 1011.3 | ||
| 20260509103058 | 0 | 0.0 | 0.0 | 0.00 | 0.00 | 0.00 | 1011.4 | ||
| 20260509101549 | 0 | 0.0 | 0.0 | 0.00 | 0.00 | 0.00 | 1011.3 | ||
| 20260509100050 | 0 | 148 | 0.0 | 0.0 | 0.00 | 0.00 | 0.00 | 1011.2 | |
| 20260509094543 | 57 | 167 | 0.0 | 0.0 | 0.00 | 0.00 | 0.00 | 45 | 1011.1 |
| 20260509093043 | 57 | 150 | 0.0 | 0.0 | 0.00 | 0.00 | 0.00 | 45 | 1011.2 |
| 20260509091540 | 57 | 176 | 0.0 | 0.0 | 0.00 | 0.00 | 0.00 | 45 | 1011.5 |
| 20260509090047 | 57 | 170 | 0.0 | 0.0 | 0.00 | 0.00 | 0.00 | 45 | 1011.5 |
| 20260509084536 | 56 | 224 | 0.0 | 0.0 | 0.00 | 0.00 | 0.00 | 45 | 1011.6 |
| 20260509083035 | 56 | 134 | 0.0 | 0.0 | 0.00 | 0.00 | 0.00 | 47 | 1011.7 |
| 20260509081534 | 56 | 176 | 0.0 | 0.0 | 0.00 | 0.00 | 0.00 | 47 | 1011.8 |
| 20260509080032 | 56 | 159 | 0.0 | 1.7 | 0.00 | 0.00 | 0.00 | 47 | 1012.0 |
| 20260509074534 | 56 | 179 | 0.0 | 1.7 | 0.00 | 0.00 | 0.00 | 47 | 1012.2 |
| 20260509073031 | 56 | 146 | 0.0 | 3.5 | 0.00 | 0.00 | 0.00 | 46 | 1012.1 |
| 20260509071530 | 56 | 179 | 0.0 | 1.7 | 0.00 | 0.00 | 0.00 | 45 | 1012.1 |
| 20260509070030 | 57 | 175 | 0.9 | 1.7 | 0.00 | 0.00 | 0.00 | 45 | 1012.1 |
| 20260509064530 | 57 | 169 | 0.0 | 1.7 | 0.00 | 0.00 | 0.00 | 44 | 1012.1 |
| 20260509063028 | 57 | 188 | 0.0 | 2.6 | 0.00 | 0.00 | 0.00 | 43 | 1012.2 |
| 20260509061528 | 57 | 158 | 0.0 | 1.7 | 0.00 | 0.00 | 0.00 | 42 | 1012.4 |